Mandan, ND

1:37 PM CST on November 18, 2017 (GMT -0600)
Mandan

Weather History for KY19 - October, 2011

Change the Weather History Date:

Saturday, October 1, 2011

  Actual Average (KBIS) Record (KBIS)
Temperature  
Mean Temperature 65 °F -  
Max Temperature 84 °F 65 °F 95 °F (1953)
Min Temperature 46 °F 38 °F 19 °F (1985)
Growing Degree Days 15 (Base 50)    
Moisture  
Dew Point 40 °F    
Average Humidity 47    
Maximum Humidity 76    
Minimum Humidity 22    
Precipitation  
Precipitation 0.00 in - - ()
Sea Level Pressure  
Sea Level Pressure 29.99 in    
Wind  
Wind Speed 13 mph (South)    
Max Wind Speed 21 mph    
Max Gust Speed 25 mph    
Visibility 10 miles    
Events      
Averages and records for this station are not official NWS values.
T = Trace of Precipitation, MM = Missing Value Source: NWS Daily Summary

Daily Weather History Graph

Daily Weather History Graph

Search for Another Location

Airport or City:

Trip Planner

Search our weather history database for the weather conditions in past years. The results will help you decide how hot, cold, wet, or windy it might be!

Date:

Astronomy

Oct. 01, 2011 Rise Set
Actual Time 7:41 AM CDT 7:23 PM CDT
Civil Twilight 7:11 AM CDT 7:53 PM CDT
Nautical Twilight 6:36 AM CDT 8:29 PM CDT
Astronomical Twilight 6:00 AM CDT 9:04 PM CDT
Moon 1:11 PM CDT (10/1) 10:00 PM CDT (10/1)
Length of Visible Light 12h 42m
Length of Day
11h 41m
Waxing Crescent, 24% of the Moon is Illuminated
Oct 1
Waxing Crescent
Oct 3
First Quarter
Oct 11
Full
Oct 19
Last Quarter
Oct 26
New

Hourly Weather History & Observations

Time (CDT) Temp. Windchill Dew Point Humidity Pressure Visibility Wind Dir Wind Speed Gust Speed Precip Events Conditions
12:15 AM 53.6 °F - 39.2 °F 58% 30.05 in 10.0 mi SSE 15.0 mph - N/A   Clear
12:35 AM 53.6 °F - 37.4 °F 54% 30.05 in 10.0 mi SSE 15.0 mph - N/A   Clear
12:55 AM 53.6 °F - 37.4 °F 54% 30.04 in 10.0 mi SSE 15.0 mph - N/A   Clear
1:15 AM 51.8 °F - 37.4 °F 58% 30.04 in 10.0 mi SSE 15.0 mph - N/A   Clear
1:35 AM 51.8 °F - 37.4 °F 58% 30.03 in 10.0 mi SSE 13.8 mph - N/A   Clear
1:55 AM 51.8 °F - 37.4 °F 58% 30.03 in 10.0 mi SSE 15.0 mph 19.6 mph N/A   Clear
2:15 AM 50.0 °F - 37.4 °F 62% 30.02 in 10.0 mi SSE 16.1 mph 20.7 mph N/A   Clear
2:35 AM 50.0 °F - 37.4 °F 62% 30.02 in 10.0 mi SSE 13.8 mph - N/A   Clear
2:55 AM 50.0 °F - 37.4 °F 62% 30.02 in 10.0 mi SSE 15.0 mph - N/A   Clear
3:15 AM 50.0 °F - 37.4 °F 62% 30.01 in 10.0 mi SSE 15.0 mph - N/A   Clear
3:35 AM 50.0 °F - 37.4 °F 62% 30.01 in 10.0 mi SSE 16.1 mph - N/A   Clear
4:15 AM 50.0 °F - 37.4 °F 62% 30.01 in 10.0 mi SSE 15.0 mph 21.9 mph N/A   Clear
4:35 AM 50.0 °F - 37.4 °F 62% 30.00 in 10.0 mi SSE 15.0 mph 20.7 mph N/A   Clear
4:55 AM 50.0 °F - 37.4 °F 62% 30.01 in 10.0 mi SSE 15.0 mph 20.7 mph N/A   Clear
5:15 AM 50.0 °F - 37.4 °F 62% 30.00 in 10.0 mi SSE 13.8 mph - N/A   Clear
5:35 AM 50.0 °F - 37.4 °F 62% 30.00 in 10.0 mi SSE 13.8 mph - N/A   Clear
5:55 AM 50.0 °F - 37.4 °F 62% 30.00 in 10.0 mi SSE 11.5 mph - N/A   Clear
6:15 AM 48.2 °F - 37.4 °F 66% 30.01 in 10.0 mi SSE 11.5 mph - N/A   Clear
6:35 AM 48.2 °F - 37.4 °F 66% 30.00 in 10.0 mi SSE 13.8 mph - N/A   Clear
7:15 AM 48.2 °F - 37.4 °F 66% 30.01 in 10.0 mi South 12.7 mph - N/A   Clear
7:55 AM 46.4 °F 40.4 °F 39.2 °F 76% 30.00 in 10.0 mi South 13.8 mph - N/A   Clear
8:15 AM 48.2 °F - 39.2 °F 71% 30.01 in 10.0 mi South 12.7 mph - N/A   Clear
8:35 AM 48.2 °F - 39.2 °F 71% 30.00 in 10.0 mi South 15.0 mph - N/A   Clear
8:55 AM 50.0 °F - 39.2 °F 66% 30.00 in 10.0 mi South 15.0 mph - N/A   Clear
9:15 AM 51.8 °F - 39.2 °F 62% 30.00 in 10.0 mi South 17.3 mph 21.9 mph N/A   Clear
9:35 AM 53.6 °F - 39.2 °F 58% 30.00 in 10.0 mi South 20.7 mph 25.3 mph N/A   Clear
9:55 AM 53.6 °F - 39.2 °F 58% 30.00 in 10.0 mi South 19.6 mph 25.3 mph N/A   Clear
10:15 AM 55.4 °F - 39.2 °F 54% 30.00 in 10.0 mi South 17.3 mph - N/A   Clear
10:35 AM 57.2 °F - 39.2 °F 51% 30.00 in 10.0 mi South 13.8 mph - N/A   Clear
10:55 AM 59.0 °F - 39.2 °F 48% 30.00 in 10.0 mi South 16.1 mph 20.7 mph N/A   Clear
11:15 AM 62.6 °F - 39.2 °F 42% 29.99 in 10.0 mi South 13.8 mph - N/A   Clear
11:35 AM 64.4 °F - 39.2 °F 40% 29.99 in 10.0 mi South 13.8 mph - N/A   Clear
12:15 PM 68.0 °F - 41.0 °F 37% 29.99 in 10.0 mi South 11.5 mph - N/A   Clear
12:35 PM 69.8 °F - 41.0 °F 35% 29.98 in 10.0 mi South 15.0 mph - N/A   Clear
12:55 PM 71.6 °F - 41.0 °F 33% 29.99 in 10.0 mi South 11.5 mph - N/A   Clear
1:15 PM 73.4 °F - 41.0 °F 31% 29.98 in 10.0 mi SSW 10.4 mph 16.1 mph N/A   Clear
1:35 PM 75.2 °F - 41.0 °F 29% 29.98 in 10.0 mi SSW 12.7 mph - N/A   Clear
1:55 PM 75.2 °F - 41.0 °F 29% 29.96 in 10.0 mi SSW 12.7 mph - N/A   Clear
2:15 PM 77.0 °F - 41.0 °F 28% 29.96 in 10.0 mi South 10.4 mph 18.4 mph N/A   Clear
2:35 PM 78.8 °F - 41.0 °F 26% 29.96 in 10.0 mi SW 13.8 mph 18.4 mph N/A   Clear
2:55 PM 80.6 °F - 41.0 °F 24% 29.95 in 10.0 mi SSW 12.7 mph - N/A   Clear
3:35 PM 82.4 °F - 41.0 °F 23% 29.96 in 10.0 mi SSW 10.4 mph - N/A   Clear
3:55 PM 82.4 °F - 41.0 °F 23% 29.95 in 10.0 mi SSW 9.2 mph - N/A   Clear
4:15 PM 84.2 °F - 41.0 °F 22% 29.95 in 10.0 mi SSW 9.2 mph - N/A   Clear
4:35 PM 84.2 °F - 41.0 °F 22% 29.95 in 10.0 mi SSW 12.7 mph - N/A   Clear
4:55 PM 84.2 °F - 41.0 °F 22% 29.95 in 10.0 mi South 6.9 mph - N/A   Clear
5:15 PM 84.2 °F - 41.0 °F 22% 29.95 in 10.0 mi WSW 5.8 mph - N/A   Clear
5:35 PM 84.2 °F - 41.0 °F 22% 29.95 in 10.0 mi WSW 5.8 mph - N/A   Clear
5:55 PM 82.4 °F - 50.0 °F 32% 29.95 in 10.0 mi East 5.8 mph - N/A   Clear
6:15 PM 77.0 °F - 50.0 °F 39% 29.95 in 10.0 mi East 5.8 mph - N/A   Clear
6:35 PM 75.2 °F - 48.2 °F 38% 29.95 in 10.0 mi ESE 8.1 mph - N/A   Clear
7:15 PM 71.6 °F - 46.4 °F 41% 29.95 in 10.0 mi SSE 8.1 mph - N/A   Clear
7:35 PM 69.8 °F - 46.4 °F 43% 29.95 in 10.0 mi South 6.9 mph - N/A   Clear
7:55 PM 68.0 °F - 44.6 °F 43% 29.95 in 10.0 mi SSE 10.4 mph - N/A   Clear
8:15 PM 68.0 °F - 42.8 °F 40% 29.95 in 10.0 mi SSE 10.4 mph - N/A   Clear
8:35 PM 68.0 °F - 41.0 °F 37% 29.96 in 10.0 mi South 10.4 mph - N/A   Clear
8:55 PM 68.0 °F - 41.0 °F 37% 29.96 in 10.0 mi SSE 11.5 mph - N/A   Clear
9:15 PM 66.2 °F - 41.0 °F 40% 29.96 in 10.0 mi South 10.4 mph - N/A   Clear
9:35 PM 66.2 °F - 41.0 °F 40% 29.96 in 10.0 mi South 9.2 mph - N/A   Clear
9:55 PM 62.6 °F - 41.0 °F 45% 29.96 in 10.0 mi South 9.2 mph - N/A   Clear
10:15 PM 62.6 °F - 41.0 °F 45% 29.96 in 10.0 mi South 8.1 mph - N/A   Clear
10:35 PM 62.6 °F - 41.0 °F 45% 29.96 in 10.0 mi South 8.1 mph - N/A   Clear
11:15 PM 64.4 °F - 41.0 °F 42% 29.96 in 10.0 mi South 4.6 mph - N/A   Clear
11:35 PM 64.4 °F - 41.0 °F 42% 29.96 in 10.0 mi South 5.8 mph - N/A   Clear
11:55 PM 64.4 °F - 41.0 °F 42% 29.96 in 10.0 mi SE 3.5 mph - N/A   Clear